Location: ????????
(48.4751°N, 37.6926°E)
Time: 20:59:19
(UTC+00:00)

SMAP - Pass Details

Date: 20 January 2021
Orbit: 681 x 683 km, 98.1° (Epoch: 01 March)

Event Time Altitude Azimuth Distance (km) Brightness Sun altitude
Rises 14:56:32 0° 170° (S) 3,032 6.6 -7.9°
Reaches altitude 10° 14:58:46 10° 173° (S) 2,122 5.8 -8.2°
Maximum altitude 15:03:24 70° 257° (WSW) 728 3.4 -9.0°
Drops below altitude 10° 15:08:05 10° 342° (NNW) 2,138 5.6 -9.7°
Sets 15:10:20 0° 345° (NNW) 3,058 6.4 -10.0°
